Location: Unspecified
(0.0000°N, 0.0000°E)
Time: 09:35:20
(UTC+00:00)

Transit 4B - Pass Details

Date: 18 August 2024
Orbit: 947 x 1097 km, 32.4° (Epoch: 07 September)

Event Time Altitude Azimuth Distance (km) Brightness Sun altitude
Rises 18:44:04 0° 333° (NNW) 3,669 12.1 -9.8°
Reaches altitude 10° 18:48:01 10° 355° (N) 2,695 11.1 -10.8°
Maximum altitude 18:51:38 15° 29° (NNE) 2,308 10.3 -11.7°
Drops below altitude 10° 18:55:14 10° 64° (ENE) 2,664 10.3 -12.6°
Enters shadow 18:55:35 - 67° (ENE) 2,733 10.4 -12.6°
